Weather in Moklakan

Russia / Zabaykalsky Krai     54°43′48″N   118°52′37″E
temp.,
°C
wind,
m/s
gust,
m/s
humid.,
%
clouds,
%
prec.,
mm/h
press.,
hPa
HPBL,
m
14 may, fri
fri1400:000n229699 0.0 1009127
03:00+1nnw1297100 0.0 1009113
06:00+1nw1199100 0.1 101073
09:00+2nnw2397100 0.4 1010236
12:00+3nw1396100 1.1 1009294
15:00+4nnw1492100 2.8 1008542
18:00+5nne3888100 0.9 1009976
21:00+3n228984 1.4 101143
15 may, sat
sat1500:000nnw228342 0.0 101214
03:00−1nw22835 0.0 101318
06:00−1wnw22815 0.0 101330
09:00+7nw24504 0.0 1010843
12:00+11nw343389 0.0 10082390
15:00+13wnw3428100 0.0 10052800
18:00+13w443071 0.0 10042400
21:00+6sw11473 0.0 100510
16 may, sun
sun1600:00+2e11625 0.0 100410
03:00+1wsw1163100 0.0 100310
06:00+2wnw126640 0.0 100272
09:00+7w34455 0.0 1000828
12:00+11nw811295 0.0 9982750
15:00+13nw71025100 0.0 9973309
18:00+11nw6104044 0.0 9972169
21:00+3w11758 0.1 100310
17 may, mon
mon1700:00+2wnw412494 0.0 1005662
03:00−2nw225121 0.0 100624
06:00−1sw114965 0.0 100723
09:00+5ssw123095 0.0 1004708
12:00+9ssw342899 0.0 10002310
15:00+9wsw3543100 0.0 9991891
18:00+10n134880 0.6 9971332
21:00+6w1167100 1.1 99812
18 may, tue
tue1800:00+3nnw1179100 0.6 100042
03:000wnw118276 0.9 100211
06:00−2nnw127525 0.1 100456
09:00+1e217892 1.2 1006672
12:00+7nnw1539100 1.2 10022338
15:00+8nw3624100 1.5 10013564
18:00+7w4635100 0.1 10022251
21:00+1ssw11825 0.2 100110